• în România
  • Lista ţărilor
  • Pe 7 zile
  • Temperatura apei
  • Hartă satelitară
  • Meteo pe hartă
  • Widget-uri
  • user-avatar
    Intrare

    Meteo pe oră la Wiktoria

    Astăzi, 17 August, Vineri

    Timp Temperatura Precipitaţii Vânt Presiune Umiditate
    00:00 +7°C° 0 mm 1 m/s 749 mmHg 84%
    01:00 +7°C° 0 mm 1 m/s 749 mmHg 84%
    02:00 +7°C° 0 mm 1 m/s 749 mmHg 85%
    03:00 +7°C° 0 mm 1 m/s 749 mmHg 85%
    04:00 +7°C° 0 mm 1 m/s 749 mmHg 85%
    05:00 +7°C° 0 mm 1 m/s 749 mmHg 85%
    06:00 +7°C° 0 mm 1 m/s 749 mmHg 86%
    07:00 +7°C° 0 mm 1 m/s 749 mmHg 86%
    08:00 +8°C° 0 mm 1 m/s 749 mmHg 83%
    09:00 +8°C° 0 mm 2 m/s 749 mmHg 79%
    10:00 +10°C° 0 mm 2 m/s 749 mmHg 75%
    11:00 +11°C° 0,1 mm 3 m/s 749 mmHg 70%
    12:00 +12°C° 0,1 mm 4 m/s 749 mmHg 66%
    13:00 +13°C° 0,1 mm 4 m/s 748 mmHg 62%
    14:00 +13°C° 0 mm 4 m/s 748 mmHg 64%
    15:00 +12°C° 0 mm 4 m/s 747 mmHg 66%
    16:00 +12°C° 0 mm 3 m/s 747 mmHg 68%
    17:00 +11°C° 0 mm 3 m/s 747 mmHg 70%
    18:00 +9°C° 0 mm 3 m/s 747 mmHg 73%
    19:00 +8°C° 0 mm 3 m/s 747 mmHg 75%
    20:00 +8°C° 0 mm 3 m/s 747 mmHg 74%
    21:00 +8°C° 0 mm 3 m/s 747 mmHg 72%
    22:00 +7°C° 0 mm 4 m/s 746 mmHg 71%
    23:00 +7°C° 0 mm 4 m/s 746 mmHg 68%

    Mâine, 18 August, Sâmbătă

    Timp Temperatura Precipitaţii Vânt Presiune Umiditate
    00:00 +7°C° 0 mm 4 m/s 745 mmHg 65%
    01:00 +8°C° 0 mm 5 m/s 745 mmHg 62%
    02:00 +7°C° 0,2 mm 5 m/s 744 mmHg 65%
    03:00 +7°C° 0,2 mm 5 m/s 744 mmHg 67%
    04:00 +7°C° 0,2 mm 5 m/s 744 mmHg 70%
    05:00 +7°C° 1 mm 4 m/s 744 mmHg 78%
    06:00 +6°C° 1 mm 4 m/s 744 mmHg 87%
    07:00 +6°C° 1 mm 4 m/s 744 mmHg 96%
    08:00 +7°C° 0,1 mm 4 m/s 745 mmHg 91%
    09:00 +7°C° 0,1 mm 5 m/s 745 mmHg 85%
    10:00 +8°C° 0,1 mm 6 m/s 746 mmHg 80%
    11:00 +9°C° 0,2 mm 7 m/s 746 mmHg 76%
    12:00 +9°C° 0,2 mm 7 m/s 745 mmHg 72%
    13:00 +9°C° 0,2 mm 8 m/s 745 mmHg 68%
    14:00 +9°C° 0,3 mm 7 m/s 745 mmHg 70%
    15:00 +9°C° 0,3 mm 7 m/s 745 mmHg 72%
    16:00 +8°C° 0,3 mm 7 m/s 745 mmHg 73%
    17:00 +7°C° 0,1 mm 6 m/s 746 mmHg 75%
    18:00 +6°C° 0,1 mm 5 m/s 746 mmHg 76%
    19:00 +5°C° 0,1 mm 5 m/s 747 mmHg 78%
    20:00 +5°C° 0 mm 5 m/s 747 mmHg 79%
    21:00 +3°C° 0 mm 5 m/s 748 mmHg 80%
    22:00 +3°C° 0 mm 5 m/s 748 mmHg 81%
    23:00 +3°C° 0 mm 5 m/s 748 mmHg 81%

    Poimâine, 19 August, Duminică

    Timp Temperatura Precipitaţii Vânt Presiune Umiditate
    00:00 +2°C° 0 mm 5 m/s 748 mmHg 81%
    01:00 +2°C° 0 mm 5 m/s 749 mmHg 82%
    02:00 +2°C° 0 mm 5 m/s 749 mmHg 80%
    03:00 +3°C° 0 mm 5 m/s 749 mmHg 79%
    04:00 +3°C° 0 mm 6 m/s 749 mmHg 78%
    05:00 +3°C° 0 mm 6 m/s 750 mmHg 77%
    06:00 +3°C° 0 mm 6 m/s 750 mmHg 76%
    07:00 +3°C° 0 mm 5 m/s 751 mmHg 76%
    08:00 +4°C° 0 mm 7 m/s 751 mmHg 72%
    09:00 +5°C° 0 mm 8 m/s 752 mmHg 69%
    10:00 +7°C° 0 mm 9 m/s 752 mmHg 65%
    11:00 +7°C° 0,2 mm 9 m/s 752 mmHg 63%
    12:00 +8°C° 0,2 mm 10 m/s 753 mmHg 60%
    13:00 +8°C° 0,2 mm 10 m/s 753 mmHg 58%
    14:00 +8°C° 0 mm 9 m/s 753 mmHg 58%
    15:00 +8°C° 0 mm 9 m/s 753 mmHg 59%
    16:00 +9°C° 0 mm 8 m/s 754 mmHg 60%
    17:00 +6°C° 0 mm 7 m/s 754 mmHg 65%
    18:00 +6°C° 0 mm 5 m/s 755 mmHg 69%
    19:00 +4°C° 0 mm 4 m/s 756 mmHg 73%
    20:00 +4°C° 0 mm 4 m/s 756 mmHg 77%
    21:00 +3°C° 0 mm 4 m/s 756 mmHg 80%
    22:00 +2°C° 0 mm 3 m/s 757 mmHg 83%
    23:00 +2°C° 0 mm 3 m/s 757 mmHg 85%

    20 August, Luni

    Timp Temperatura Precipitaţii Vânt Presiune Umiditate
    00:00 +1°C° 0 mm 3 m/s 757 mmHg 87%
    01:00 +1°C° 0 mm 3 m/s 757 mmHg 89%
    02:00 +1°C° 0 mm 3 m/s 757 mmHg 90%
    03:00 0°C° 0 mm 3 m/s 757 mmHg 92%
    04:00 0°C° 0 mm 3 m/s 757 mmHg 93%
    05:00 +1°C° 0 mm 2 m/s 757 mmHg 93%
    06:00 +1°C° 0 mm 2 m/s 757 mmHg 94%
    07:00 +1°C° 0 mm 2 m/s 757 mmHg 94%
    08:00 +3°C° 0 mm 2 m/s 757 mmHg 86%
    09:00 +6°C° 0 mm 2 m/s 757 mmHg 78%
    10:00 +8°C° 0 mm 3 m/s 757 mmHg 70%
    11:00 +9°C° 0 mm 3 m/s 757 mmHg 67%
    12:00 +10°C° 0 mm 3 m/s 756 mmHg 63%
    13:00 +11°C° 0 mm 3 m/s 756 mmHg 60%
    14:00 +12°C° 0 mm 2 m/s 755 mmHg 62%
    15:00 +12°C° 0 mm 2 m/s 755 mmHg 65%
    16:00 +10°C° 0 mm 2 m/s 754 mmHg 67%
    17:00 +9°C° 0 mm 2 m/s 754 mmHg 69%
    18:00 +8°C° 0 mm 2 m/s 755 mmHg 70%
    19:00 +7°C° 0 mm 2 m/s 755 mmHg 72%
    20:00 +7°C° 0 mm 2 m/s 755 mmHg 75%
    21:00 +6°C° 0 mm 2 m/s 755 mmHg 77%
    22:00 +5°C° 0 mm 2 m/s 755 mmHg 80%
    23:00 +4°C° 0 mm 2 m/s 755 mmHg 83%

    21 August, Marţi

    Timp Temperatura Precipitaţii Vânt Presiune Umiditate
    00:00 +4°C° 0 mm 1 m/s 754 mmHg 85%
    01:00 +3°C° 0 mm 1 m/s 754 mmHg 88%
    02:00 +3°C° 0 mm 1 m/s 754 mmHg 88%
    03:00 +3°C° 0 mm 1 m/s 753 mmHg 88%
    04:00 +3°C° 0 mm 1 m/s 753 mmHg 87%
    05:00 +3°C° 0 mm 1 m/s 753 mmHg 89%
    06:00 +3°C° 0 mm 1 m/s 753 mmHg 90%
    07:00 +2°C° 0 mm 1 m/s 754 mmHg 91%
    08:00 +3°C° 0 mm 2 m/s 754 mmHg 86%
    09:00 +5°C° 0 mm 2 m/s 754 mmHg 80%
    10:00 +7°C° 0 mm 2 m/s 754 mmHg 75%
    11:00 +9°C° 0 mm 2 m/s 753 mmHg 74%
    12:00 +10°C° 0 mm 3 m/s 753 mmHg 73%
    13:00 +12°C° 0 mm 3 m/s 752 mmHg 71%
    14:00 +12°C° 0,2 mm 3 m/s 752 mmHg 75%
    15:00 +13°C° 0,2 mm 2 m/s 752 mmHg 78%
    16:00 +12°C° 0,2 mm 2 m/s 751 mmHg 82%
    17:00 +10°C° 0,1 mm 2 m/s 752 mmHg 85%
    18:00 +10°C° 0,1 mm 1 m/s 752 mmHg 88%
    19:00 +9°C° 0,1 mm 1 m/s 752 mmHg 91%
    20:00 +8°C° 0 mm 1 m/s 752 mmHg 92%
    21:00 +7°C° 0 mm 0 m/s 752 mmHg 92%
    22:00 +6°C° 0 mm 0 m/s 753 mmHg 93%
    23:00 +7°C° 0 mm 0 m/s 752 mmHg 93%

    22 August, Miercuri

    Timp Temperatura Precipitaţii Vânt Presiune Umiditate
    00:00 +8°C° 0 mm 1 m/s 752 mmHg 93%
    01:00 +8°C° 0 mm 1 m/s 752 mmHg 93%
    02:00 +8°C° 0 mm 1 m/s 752 mmHg 93%
    03:00 +8°C° 0 mm 1 m/s 752 mmHg 94%
    04:00 +8°C° 0 mm 1 m/s 751 mmHg 95%
    05:00 +8°C° 0 mm 1 m/s 752 mmHg 95%
    06:00 +7°C° 0 mm 1 m/s 752 mmHg 95%
    07:00 +6°C° 0 mm 2 m/s 752 mmHg 95%
    08:00 +7°C° 0 mm 2 m/s 752 mmHg 89%
    09:00 +9°C° 0 mm 2 m/s 752 mmHg 84%
    10:00 +10°C° 0 mm 2 m/s 752 mmHg 79%
    11:00 +12°C° 0 mm 3 m/s 752 mmHg 72%
    12:00 +13°C° 0 mm 3 m/s 751 mmHg 65%
    13:00 +14°C° 0 mm 3 m/s 751 mmHg 59%
    14:00 +15°C° 0,1 mm 2 m/s 750 mmHg 61%
    15:00 +15°C° 0,1 mm 2 m/s 750 mmHg 63%
    16:00 +15°C° 0,1 mm 2 m/s 750 mmHg 65%
    17:00 +14°C° 0 mm 2 m/s 750 mmHg 68%
    18:00 +12°C° 0 mm 2 m/s 750 mmHg 70%
    19:00 +9°C° 0 mm 2 m/s 750 mmHg 72%
    20:00 +9°C° 0 mm 2 m/s 751 mmHg 73%
    21:00 +8°C° 0 mm 2 m/s 751 mmHg 75%
    22:00 +8°C° 0 mm 2 m/s 751 mmHg 76%
    23:00 +7°C° 0 mm 2 m/s 751 mmHg 76%
    Arată mai mult